[[{"header":{"parameterUnit":"m.s-1","parameterCategory":1,"la1":30.2991,"la2":30.254,"lo1":-89.0895,"lo2":-89.0444,"dx":0.0017,"dy":0.0017,"nx":28,"ny":28,"refTime":"2022-12-29T09:00:00:Z","depth":0,"parameterNumber":2,"parameterNumberName":"U-component_of_WINDS"},"data":[0,0,0,0,0,0,0,0,0,0,0,0,0,0,0,0,0,0,0,0,0,0,0,0,0,0,0,0,0,0,0,0,0,0,0,0,0,0,0,0,0,0,0,0,0,0,0,0,0,0,0,0,0,0,0,0,0,0,-0.0891,-0.0887,0,-0.0478,-0.0473,-0.0469,-0.0279,-0.028,-0.028,-0.028,0.0136,0.0147,0.0159,0,0,0,0,0,0,0,0,0,0,0,0,0,-0.152,-0.1509,-0.0892,-0.0886,-0.0881,-0.0479,-0.0473,-0.0467,-0.0279,-0.028,-0.028,-0.0281,0.0132,0.0146,0.016,0,0,0,0,0,0,0,0,0,0,0,0,0,-0.1191,-0.1506,-0.0892,-0.0739,-0.0721,-0.048,-0.0473,-0.0466,-0.0279,-0.028,-0.028,-0.0281,0.0128,0.0145,0.0162,0.0279,0,0,0.0214,0.0221,0,0,0,0,0,0,0,0,-0.121,-0.1168,-0.0766,-0.0749,-0.0728,-0.0431,-0.0541,-0.0216,-0.0279,-0.0447,-0.028,-0.0281,-0.0052,-0.002,0.0058,0.0298,0.0316,0.0216,0.0226,0.0233,0.0238,0,0,0,0,0,0,0,-0.1233,-0.1185,-0.0728,-0.0761,-0.0737,-0.0691,-0.0645,-0.0479,-0.0252,-0.0432,-0.0418,-0.0371,-0.0042,0.0041,0.0069,0.0322,0.0215,0.023,0.0241,0.0248,0.0682,0.0683,0,0,0,0,0,0,-0.128,-0.1205,-0.0741,-0.0716,-0.0975,-0.0679,-0.0628,-0.0526,-0.0253,-0.0212,-0.0371,-0.0364,0.0012,0.0049,0.0085,0.0243,0.0233,0.0249,0.0259,0.0681,0.0683,0.0684,0,0,0,0,0,0,-0.1295,-0.1241,-0.0758,-0.0956,-0.0891,-0.0668,-0.0555,-0.0517,-0.0433,-0.0206,-0.0166,-0.0327,0.0013,0.0061,0.0231,0.026,0.0257,0.0273,0.068,0.0682,0.0683,0.0558,0,0,0,0,0,0,-0.1314,-0.1247,-0.12,-0.0956,-0.0881,-0.0618,-0.0553,-0.0509,-0.0404,-0.039,-0.0155,-0.0116,0.0016,0.0204,0.0247,0.0284,0.0286,0.0678,0.068,0.0683,0.0561,0.0555,0.0551,0,0,0,0,0,-0.1337,-0.1253,-0.1198,-0.1143,-0.0817,-0.0617,-0.0574,-0.0421,-0.0402,-0.0352,-0.0206,-0.0124,0.0249,0.022,0.027,0.0312,0.0677,0.068,0.0682,0.0563,0.0556,0.0551,0,0,0,0,0,0,-0.1501,-0.1219,-0.1154,-0.099,-0.0828,-0.0585,-0.0518,-0.0433,-0.0275,-0.0269,-0.0089,-0.0037,0.0117,0.0231,0.0194,0.0441,0.047,0.0483,0.0362,0.0358,0.0353,0.0323,0.03,0,0,0,0,0,-0.1518,-0.1378,-0.1139,-0.1017,-0.0939,-0.0743,-0.065,-0.0546,-0.0372,-0.0304,-0.0145,0.0019,0.0174,0.0271,0.0426,0.0577,0.0632,0.0631,0.0625,0.0621,0.063,0.0722,0.0725,0.0693,0.0693,0.0693,0,0,-0.1551,-0.138,-0.1303,-0.1046,-0.0908,-0.0767,-0.0687,-0.0542,-0.0435,-0.0282,-0.011,0.0011,0.0206,0.0368,0.0447,0.0467,0.0651,0.0624,0.0618,0.0632,0.0725,0.0728,0.073,0.0695,0.0695,0.0694,0,0,-0.1539,-0.1397,-0.1277,-0.1141,-0.0933,-0.0803,-0.0775,-0.0543,-0.0456,-0.028,-0.0161,-0.0034,0.0228,0.0363,0.0466,0.053,0.0612,0.0574,0.055,0.0637,0.0639,0.0643,0.0668,0.0675,0.0583,0.0583,0.0582,0,-0.1608,-0.1389,-0.1228,-0.1087,-0.0977,-0.083,-0.0707,-0.0584,-0.0338,-0.0265,-0.0245,0.0089,0.023,0.0427,0.0443,0.052,0.0559,0.055,0.0626,0.0631,0.0636,0.0663,0.0672,0.0577,0.0578,0.0578,0.0579,0,-0.1482,-0.1333,-0.1261,-0.1024,-0.0906,-0.0776,-0.0595,-0.0495,-0.0402,-0.0274,-0.0097,0.0078,0.0272,0.0326,0.0417,0.0536,0.0543,0.0592,0.0625,0.0631,0.0659,0.067,0.0569,0.0571,0.0572,0.0574,0,0,-0.1561,-0.1235,-0.1211,-0.11,-0.086,-0.0741,-0.0605,-0.0413,-0.0329,-0.0165,-0.0045,0.0174,0.0222,0.0338,0.0446,0.0521,0.0565,0.0562,0.0569,0.0559,0.071,0.0674,0.0683,0.062,0.0622,0.0624,0.0695,0,-0.1514,-0.126,-0.111,-0.0917,-0.0776,-0.0634,-0.0514,-0.0355,-0.0232,-0.0095,0.004,0.0194,0.0244,0.0315,0.0396,0.0542,0.0598,0.0538,0.0734,0.0739,0.0684,0.0698,0.066,0.0718,0.0706,0.0708,0.071,0,-0.1425,-0.126,-0.1053,-0.0826,-0.0761,-0.0656,-0.0466,-0.0337,-0.0153,-0.0069,0.0062,0.017,0.032,0.0339,0.0548,0.0504,0.0593,0.0676,0.0682,0.0709,0.0726,0.0727,0.074,0.0749,0.0728,0.0726,0.0725,0,-0.15,-0.1227,-0.1066,-0.0977,-0.0709,-0.0638,-0.0523,-0.0339,-0.0232,-0.0068,0.0004,0.0182,0.028,0.0415,0.0569,0.0568,0.0763,0.0794,0.0838,0.0834,0.0875,0.0871,0.0905,0.0925,0.0925,0.0925,0.0925,0,-0.1461,-0.1339,-0.1096,-0.0997,-0.0856,-0.0685,-0.0551,-0.0425,-0.0262,-0.0136,-0.0005,0.011,0.0304,0.0443,0.0563,0.0719,0.0761,0.0834,0.0865,0.0824,0.0815,0.0887,0.0888,0.0928,0.0927,0.0926,0.0926,0,-0.152,-0.1352,-0.1167,-0.0928,-0.0865,-0.0772,-0.0567,-0.0465,-0.0336,-0.0178,-0.0132,0.0072,0.0242,0.0408,0.0634,0.0716,0.0872,0.0911,0.0811,0.0829,0.0864,0.0859,0.0948,0.0969,0.0971,0.097,0.097,0,-0.1505,-0.1407,-0.1157,-0.1062,-0.0949,-0.08,-0.0689,-0.0517,-0.0408,-0.0189,-0.0114,0.0066,0.022,0.0485,0.0652,0.0827,0.0873,0.0892,0.09,0.0857,0.0878,0.0871,0.0883,0.0888,0.0887,0.0886,0.0886,0,-0.1495,-0.1416,-0.1261,-0.1076,-0.0948,-0.0795,-0.0637,-0.0568,-0.0365,-0.0249,-0.0072,0.0047,0.0282,0.0459,0.0654,0.0771,0.0863,0.0882,0.0902,0.0863,0.0802,0.0839,0.0802,0.088,0.088,0.0881,0.0881,0.0881,-0.1513,-0.1419,-0.1227,-0.1058,-0.0921,-0.0776,-0.0668,-0.0524,-0.0372,-0.0166,-0.0075,0.0104,0.0288,0.0559,0.0675,0.0817,0.084,0.0867,0.0875,0.088,0.0873,0.0777,0.0852,0.0853,0.0853,0.0853,0.0854,0,-0.1494,-0.1363,-0.121,-0.0992,-0.0859,-0.0783,-0.0604,-0.0497,-0.0341,-0.0176,-0.0026,0.0178,0.0352,0.0533,0.0717,0.0795,0.0842,0.0838,0.0835,0.0862,0.084,0.0806,0.0798,0.0798,0.0798,0.0798,0.0798,0.0798,-0.1468,-0.1303,-0.1202,-0.0967,-0.0836,-0.0658,-0.0562,-0.0427,-0.0294,-0.0071,0.0075,0.0193,0.0365,0.0563,0.0725,0.0774,0.0837,0.0821,0.0882,0.0859,0.0862,0.0866,0.0835,0.0833,0.0833,0.0892,0.0893,0.0893]},{"header":{"parameterUnit":"m.s-1","parameterCategory":1,"la1":30.2991,"la2":30.254,"lo1":-89.0895,"lo2":-89.0444,"dx":0.0017,"dy":0.0017,"nx":28,"ny":28,"refTime":"2022-12-29T09:00:00:Z","depth":0,"parameterNumber":3,"parameterNumberName":"V-component_of_WINDS"},"data":[0,0,0,0,0,0,0,0,0,0,0,0,0,0,0,0,0,0,0,0,0,0,0,0,0,0,0,0,0,0,0,0,0,0,0,0,0,0,0,0,0,0,0,0,0,0,0,0,0,0,0,0,0,0,0,0,0,0,1.4073,1.4072,0,1.3997,1.3996,1.3996,1.3982,1.3983,1.3983,1.3984,1.3898,1.3895,1.3892,0,0,0,0,0,0,0,0,0,0,0,0,0,1.4196,1.4194,1.4073,1.4072,1.4071,1.3998,1.3996,1.3995,1.3982,1.3983,1.3983,1.3984,1.3899,1.3896,1.3892,0,0,0,0,0,0,0,0,0,0,0,0,0,1.4134,1.4194,1.4073,1.4056,1.4054,1.3998,1.3996,1.3995,1.3982,1.3983,1.3984,1.3985,1.39,1.3896,1.3892,1.3845,0,0,1.3878,1.3876,0,0,0,0,0,0,0,0,1.4137,1.4129,1.4059,1.4057,1.4054,1.4,1.4008,1.3945,1.3981,1.4009,1.3984,1.3985,1.3931,1.3924,1.3907,1.3841,1.3838,1.3878,1.3875,1.3873,1.3872,0,0,0,0,0,0,0,1.4142,1.4132,1.4043,1.4058,1.4055,1.4049,1.4041,1.3996,1.3965,1.4006,1.4005,1.3997,1.3929,1.3912,1.3905,1.3836,1.3878,1.3874,1.3872,1.387,1.3725,1.3724,0,0,0,0,0,0,1.4151,1.4136,1.4045,1.4041,1.4099,1.4046,1.4037,1.4016,1.3965,1.3959,1.3996,1.3997,1.3918,1.391,1.3902,1.3844,1.3873,1.3869,1.3867,1.3726,1.3725,1.3723,0,0,0,0,0,0,1.4153,1.4143,1.4048,1.4088,1.4076,1.4043,1.402,1.4014,1.3997,1.3958,1.3951,1.3984,1.3919,1.3908,1.3859,1.384,1.3867,1.3864,1.3728,1.3726,1.3724,1.3727,0,0,0,0,0,0,1.4157,1.4144,1.4129,1.4088,1.4074,1.401,1.4019,1.4012,1.399,1.399,1.3945,1.3938,1.3919,1.3866,1.3855,1.3835,1.386,1.3729,1.3727,1.3725,1.3728,1.3725,1.3723,0,0,0,0,0,1.4161,1.4131,1.4128,1.4117,1.4054,1.4009,1.4001,1.3982,1.3989,1.3972,1.3946,1.394,1.3844,1.3861,1.3849,1.3827,1.373,1.3728,1.3725,1.373,1.3726,1.3723,0,0,0,0,0,0,1.4168,1.4126,1.4122,1.4078,1.4048,1.4007,1.3985,1.3978,1.3944,1.3945,1.3919,1.3909,1.3861,1.3838,1.3859,1.3778,1.3787,1.3782,1.3795,1.3791,1.3788,1.3795,1.3857,0,0,0,0,0,1.4165,1.4135,1.4098,1.4063,1.4048,1.4019,1.3999,1.3986,1.3953,1.3939,1.391,1.3875,1.3837,1.3812,1.3775,1.3724,1.3713,1.3702,1.37,1.3697,1.3693,1.3662,1.3657,1.3714,1.3714,1.3714,0,0,1.4157,1.413,1.4113,1.4063,1.4039,1.4005,1.4008,1.3973,1.3947,1.3933,1.3886,1.3863,1.3822,1.3771,1.3748,1.3751,1.3674,1.3694,1.3693,1.3689,1.3659,1.3653,1.3649,1.3712,1.3713,1.3713,0,0,1.4127,1.4104,1.4072,1.4047,1.401,1.399,1.3982,1.3942,1.3927,1.388,1.3868,1.3834,1.3769,1.374,1.3717,1.3671,1.3664,1.3659,1.3645,1.3615,1.3611,1.3607,1.3589,1.3584,1.3655,1.3655,1.3655,0,1.4122,1.4074,1.4055,1.4021,1.3998,1.3985,1.395,1.3925,1.3877,1.386,1.3865,1.3782,1.3753,1.3695,1.3684,1.3666,1.3653,1.3666,1.3613,1.3609,1.3605,1.3588,1.3582,1.3655,1.3655,1.3655,1.3655,0,1.4069,1.4035,1.4013,1.3969,1.3943,1.3908,1.3881,1.3857,1.3845,1.3824,1.3774,1.3738,1.3693,1.3678,1.3666,1.3616,1.362,1.3619,1.3628,1.36,1.3583,1.3577,1.3655,1.3655,1.3655,1.3655,0,0,1.4044,1.3988,1.398,1.3959,1.3915,1.3887,1.385,1.3808,1.3787,1.3752,1.3718,1.3662,1.3661,1.3634,1.3618,1.3591,1.3556,1.3593,1.3592,1.3588,1.3497,1.3499,1.3492,1.355,1.3548,1.3547,1.3501,0,1.4009,1.3946,1.3926,1.3872,1.3839,1.3824,1.379,1.3758,1.3736,1.3702,1.3676,1.3637,1.3638,1.3622,1.3595,1.3566,1.3537,1.3569,1.3516,1.3514,1.3528,1.3484,1.3486,1.3444,1.3494,1.3493,1.3493,0,1.396,1.3927,1.387,1.3829,1.3814,1.3785,1.3743,1.3712,1.3673,1.3658,1.3627,1.3612,1.3569,1.3579,1.3517,1.3539,1.3515,1.3497,1.3494,1.3489,1.3503,1.3478,1.343,1.3424,1.3482,1.3483,1.3484,0,1.3948,1.3888,1.3846,1.3828,1.3778,1.3758,1.3736,1.3698,1.3673,1.3635,1.3617,1.3574,1.355,1.3514,1.3486,1.3497,1.3426,1.3434,1.341,1.3411,1.3398,1.3399,1.3346,1.3381,1.3381,1.3381,1.3381,0,1.3911,1.3877,1.384,1.3814,1.3774,1.3749,1.3708,1.3684,1.365,1.3617,1.3599,1.3567,1.3532,1.3494,1.3471,1.3422,1.3411,1.3396,1.3391,1.3399,1.3401,1.3384,1.3386,1.338,1.338,1.338,1.3381,0,1.3892,1.3866,1.3819,1.3775,1.3763,1.3735,1.3696,1.3668,1.3644,1.3602,1.359,1.3552,1.3506,1.3474,1.3415,1.34,1.3346,1.3341,1.3361,1.3358,1.3336,1.3339,1.3271,1.326,1.3302,1.3302,1.3302,0,1.3871,1.3844,1.3798,1.3775,1.3754,1.3717,1.3692,1.3664,1.3638,1.359,1.3567,1.3521,1.3483,1.341,1.3374,1.3328,1.3321,1.3301,1.3314,1.3322,1.3321,1.3323,1.3319,1.3299,1.3299,1.3299,1.3298,0,1.3837,1.3824,1.379,1.375,1.372,1.3687,1.3653,1.3634,1.36,1.357,1.3525,1.3495,1.3435,1.3388,1.3338,1.3311,1.3298,1.3294,1.3286,1.3294,1.3307,1.3299,1.3356,1.3296,1.3296,1.3296,1.3297,1.3297,1.3816,1.3791,1.3754,1.3715,1.3686,1.3654,1.3626,1.3598,1.3561,1.3512,1.3496,1.3448,1.3405,1.3337,1.3309,1.3269,1.327,1.3259,1.3256,1.3253,1.3254,1.3313,1.3259,1.3259,1.3259,1.3259,1.3259,0,1.378,1.3755,1.372,1.3673,1.3642,1.3634,1.3594,1.3568,1.3527,1.349,1.3452,1.3398,1.3352,1.3312,1.3263,1.3238,1.3231,1.3226,1.3228,1.3222,1.3256,1.3268,1.3233,1.3233,1.3233,1.3233,1.3233,1.3233,1.3759,1.3716,1.3698,1.3639,1.3613,1.3568,1.3546,1.3515,1.3485,1.3427,1.3389,1.3364,1.3324,1.3272,1.3227,1.3216,1.3199,1.3196,1.3183,1.3216,1.3219,1.3222,1.3234,1.3192,1.3192,1.3153,1.3152,1.3152]}]]